www.pogodaiklimat.ru

Погода и климат >> Архив погоды >> Норвегия >> Тронхейм аэропорт


АРХИВ ПОГОДЫ в Тронхейм аэропорту

Время (UTC), дата Ветер
(напр.,м/с)
 
Видим.   Явления Облачность Т
(С)
Тd
(С)
f
(%)
Тe
(С)
Тes
(С)
Комфортность P
(гПа)
Po
(гПа)
Тmin
(С)
Tmax
(С)
R
(мм)
R24
(мм)
S
(см)
13 14.07 СЗ 4
{6}
50 км 10/10 1000 м
[]
+12.7 +6.4 65 +11 +11 прохладно 1019.2 1017.2
14 14.07 СЗ 2
{7}
11 км 10/0
[]
+12.3 +7.5 72 +11 +16 прохладно 1019.4 1017.3
15 14.07 З 3
{8}
50 км 10/10 1000 м
[]
+12.8 +7.3 69 +12 +12 прохладно 1019.1 1017.0
16 14.07 З 4
{9}
45 км 10/10 1000 м
[]
+12.6 +7.5 71 +11 +11 прохладно 1018.9 1016.9
17 14.07 З 5
{9}
45 км 10/10 1000 м
[]
+12.4 +7.7 73 +10 +10 холодно 1018.6 1016.6 0.1
18 14.07 З 6
{9}
29 км слаб. ливневой дождь 10/10 300 м
[]
+11.2 +8.5 83 +8 +8 очень
холодно
1018.7 1016.6 +10.6 +13.2 0.1
19 14.07 З 6
{8}
13 км слаб. ливневой дождь 10/0
[]
+11.0 +8.5 85 +8 +8 прохладно 1018.5 1016.4 0.2
20 14.07 З 6
{8}
50 км 10/10 300 м
[]
+11.0 +8.3 83 +8 +8 прохладно 1018.4 1016.3
21 14.07 З 5
{7}
45 км 10/10 1000 м
[]
+10.9 +8.0 82 +8 +8 холодно 1018.2 1016.1
22 14.07 З 6
{8}
50 км 10/10 600 м
[]
+11.0 +7.6 80 +8 +8 по сезону 1018.1 1016.0
23 14.07 ЮЗ 5
{10}
21 км 10/10 600 м
[]
+10.0 +7.9 87 +7 +7 прохладно 1017.8 1015.7
00 15.07 З 6
{10}
50 км 10/10 300 м
[]
+10.2 +7.8 85 +7 +7 прохладно 1017.5 1015.4 0.2
01 15.07 З 6
{9}
30 км слаб. ливневой дождь 10/10 300 м
[]
+10.0 +7.7 86 +7 +7 по сезону 1017.3 1015.2 0.1
02 15.07 З 6
{8}
12 км дождь 10/0
[]
+9.7 +8.7 93 +6 +6 прохладно 1016.9 1014.8 2
03 15.07 З 6
{10}
5000 м дождь 10/0
[]
+9.5 +8.4 93 +6 +6 холодно 1016.7 1014.6 1
04 15.07 З 6
{9}
16 км морось 9/0
[]
+9.8 +8.3 90 +6 +6 прохладно 1016.5 1014.4 1
05 15.07 З 5
{8}
35 км слаб. морось 10/10 1000 м
[]
+10.2 +8.1 87 +7 +7 прохладно 1016.2 1014.1 0.5
06 15.07 З 7
{10}
24 км слаб. ливневой дождь 10/10 300 м
[]
+10.0 +8.6 91 +6 +6 холодно 1015.9 1013.9 +9.4 +11.4 5
07 15.07 З 6
{9}
13 км слаб. ливневой дождь 10/10 200 м
[]
+10.2 +8.7 90 +7 +7 холодно 1015.6 1013.5
08 15.07 З 6
{8}
50 км в посл. час морось н/о +10.6 +9.0 90 +7 +7 холодно 1015.6 1013.6
09 15.07 З 6
{7}
6000 м сильн. морось 10/10 200 м
[]
+10.5 +9.5 94 +7 +7 холодно 1015.6 1013.5 0.1
10 15.07 З 4
{7}
45 км 10/10 200 м
[]
+10.8 +9.4 91 +8 +8 очень
холодно
1015.4 1013.3
11 15.07 З 3
{5}
19 км морось 10/10 300 м
[]
+11.2 +9.6 90 +9 +9 холодно 1015.1 1013.0
12 15.07 З 4
{9}
13 км морось 10/10 200 м
[]
+11.3 +10.2 93 +9 +9 очень
холодно
1014.9 1012.8 0.1
13 15.07 З 3
{5}
30 км морось 10/10 200 м
[]
+11.4 +9.7 89 +10 +10 холодно 1014.7 1012.6 0.1
14 15.07 З 3
{7}
17 км морось 10/10 300 м
[]
+11.3 +9.7 90 +9 +9 холодно 1014.4 1012.3
15 15.07 З 3
{8}
5000 м слаб. дождь 10/10 200 м
[]
+10.7 +9.8 94 +9 +9 холодно 1014.3 1012.3 1
16 15.07 З 2
{5}
14 км слаб. дождь 10/0
[]
+10.9 +9.9 94 +9 +12 холодно 1014.1 1012.0 1
17 15.07 З 4
{6}
35 км слаб. дождь 9/9 300 м
[]
+11.4 +10.2 92 +9 +9 холодно 1014.1 1012.0 0.5
18 15.07 З 5
{8}
50 км в посл. час морось 10/0
[]
+11.6 +10.1 91 +9 +9 холодно 1014.0 1011.9 +10.0 +11.7 3
19 15.07 СЗ 6
{7}
50 км 10/10 600 м
[]
+11.8 +9.3 85 +9 +9 прохладно 1014.2 1012.2
20 15.07 С 3
{9}
50 км 10/10 1000 м
[]
+11.1 +7.9 81 +9 +9 прохладно 1014.9 1012.8
21 15.07 С 4
{5}
50 км 10/10 1000 м
[]
+10.6 +8.3 86 +8 +8 холодно 1015.5 1013.5
22 15.07 СЗ 4
{6}
50 км 10/10 1000 м
[]
+10.4 +7.5 82 +8 +8 по сезону 1015.9 1013.8
23 15.07 СЗ 4
{6}
50 км 10/10 1000 м
[]
+10.4 +7.3 81 +8 +8 по сезону 1016.1 1014.0
00 16.07 СЗ 4
{9}
50 км 10/10 1000 м
[]
+10.1 +7.5 84 +7 +7 прохладно 1016.4 1014.3
01 16.07 СЗ 5
{7}
50 км 10/10 1000 м
[]
+10.3 +7.7 84 +7 +7 по сезону 1016.7 1014.6
02 16.07 СЗ 4
{7}
50 км в посл. час морось 10/10 1000 м
[]
+10.1 +8.0 87 +7 +7 прохладно 1016.7 1014.6
03 16.07 СЗ 4
{7}
50 км 10/10 600 м
[]
+10.1 +8.1 87 +7 +7 прохладно 1016.8 1014.8
04 16.07 З 6
{9}
50 км 10/10 300 м
[]
+10.6 +8.7 88 +7 +7 прохладно 1016.8 1014.7
05 16.07 З 7
{9}
50 км 10/10 1000 м
[]
+10.7 +8.9 89 +7 +7 прохладно 1017.0 1014.9
06 16.07 З 6
{10}
45 км 10/10 1000 м
[]
+11.2 +9.2 87 +8 +8 прохладно 1017.2 1015.1 +10.0 +12.0
07 16.07 З 6
{8}
50 км 10/10 300 м
[]
+11.6 +8.9 83 +9 +9 прохладно 1017.4 1015.3
08 16.07 З 5
{7}
50 км 10/10 1000 м
[]
+11.6 +8.3 80 +9 +9 прохладно 1017.4 1015.3
09 16.07 З 5
{6}
45 км 10/10 600 м
[]
+12.0 +8.6 80 +10 +10 прохладно 1017.4 1015.3
10 16.07 З 4
{6}
40 км 10/10 600 м
[]
+12.4 +8.9 79 +10 +10 холодно 1017.4 1015.3
11 16.07 З 3
{4}
9000 м 10/10 600 м
[]
+13.5 +9.5 77 +12 +12 прохладно 1017.3 1015.3
12 16.07 З 3
{8}
45 км 10/10 600 м
[]
+13.3 +7.8 69 +12 +12 прохладно 1017.3 1015.3
13 16.07 З 2
{3}
40 км 10/10 1000 м
[]
+13.5 +8.2 70 +13 +13 прохладно 1017.3 1015.2
14 16.07 З 2
{4}
40 км 10/10 1000 м
[]
+13.8 +8.4 70 +13 +13 прохладно 1017.2 1015.1
15 16.07 З 3
{4}
50 км 10/10 1000 м
[]
+14.0 +8.4 69 +13 +13 прохладно 1016.9 1014.9
16 16.07 З 4
{5}
50 км ясно +13.6 +8.3 70 +12 +15 прохладно 1016.5 1014.5
17 16.07 СЗ 4
{5}
40 км 9/9 1500 м
[]
+15.2 +9.0 66 +14 +14 по сезону 1016.3 1014.2
18 16.07 З 4
{5}
40 км 10/10 1000 м
[]
+14.8 +8.2 65 +14 +14 по сезону 1016.0 1014.0 +11.1 +15.4
19 16.07 З 3
{4}
45 км 10/10 1000 м
[]
+13.6 +9.5 76 +12 +12 по сезону 1015.6 1013.6
20 16.07 З 3
{4}
50 км 9/0
[]
+13.3 +9.5 78 +12 +12 по сезону 1015.6 1013.5
21 16.07 З 2
{3}
50 км 8/8 1000 м
[]
+12.0 +9.7 86 +11 +11 прохладно 1015.6 1013.6
22 16.07 ЮВ 2
{4}
50 км 10/10 1000 м
[]
+10.3 +8.7 90 +9 +9 по сезону 1015.6 1013.5
23 16.07 ЮВ 4
{5}
50 км 5/0
[]
+9.1 +7.7 91 +6 +6 прохладно 1015.6 1013.5
00 17.07 ЮВ 3
{5}
50 км ясно +8.0 +6.8 92 +5 +5 холодно 1015.3 1013.2
01 17.07 ЮВ 2
{6}
50 км 10/10 50 м
[]
+7.4 +6.5 94 +5 +5 прохладно 1014.9 1012.8
02 17.07 В 2
{3}
16 км н/о +6.5 +5.6 94 +4 +4 холодно 1014.6 1012.5
03 17.07 В 3
{3}
18 км в посл. час туман 9/9 50 м
[]
+6.8 +6.2 96 +4 +4 очень
холодно
1014.4 1012.3
04 17.07 В 2
{3}
23 км 8/8 50 м
[]
+8.0 +7.1 94 +6 +6 прохладно 1014.3 1012.2
05 17.07 СВ 2
{3}
40 км ясно +9.7 +8.0 89 +8 +10 прохладно 1014.1 1012.0
06 17.07 СЗ 1
{6}
45 км ясно +12.5 +8.8 78 +13 +17 по сезону 1014.0 1011.9 +6.4 +14.9
07 17.07 З 3
{4}
45 км ясно +12.2 +8.7 79 +11 +15 по сезону 1013.7 1011.7
08 17.07 З 5
{6}
35 км ясно +12.6 +9.3 80 +10 +14 прохладно 1013.5 1011.4
09 17.07 З 5
{7}
35 км ясно +13.7 +9.7 77 +12 +17 по сезону 1013.4 1011.3
10 17.07 З 5
{6}
40 км ясно +14.3 +9.5 73 +13 +19 прохладно 1013.2 1011.2
11 17.07 З 5
{8}
40 км ясно +15.5 +10.1 70 +14 +21 по сезону 1012.9 1010.9
12 17.07 З 5
{8}
40 км ясно +15.9 +9.7 67 +15 +21 по сезону 1012.5 1010.5
13 17.07 З 5
{6}
30 км ясно +16.8 +9.0 60 +16 +22 по сезону 1012.2 1010.1
14 17.07 З 5
{8}
35 км ясно +17.1 +9.2 60 +16 +21 по сезону 1011.7 1009.6
15 17.07 З 5
{6}
45 км ясно +17.1 +8.7 58 +16 +20 по сезону 1011.4 1009.4
16 17.07 З 4
{7}
50 км ясно +16.5 +7.9 57 +16 +19 по сезону 1011.2 1009.2
17 17.07 З 4
{6}
45 км ясно +17.9 +6.6 48 +18 +20 тепло 1010.9 1008.9
18 17.07 З 2
{8}
45 км ясно +18.1 +8.0 52 +19 +20 тепло 1010.7 1008.7 +11.8 +18.3
19 17.07 З 2
{3}
50 км 3/0
[]
+17.9 +8.8 55 +18 +19 тепло 1010.7 1008.7
20 17.07 З 2
{4}
50 км 3/0
[]
+15.5 +10.4 72 +15 +15 тепло 1010.6 1008.6
21 17.07 ЮЗ 1
{3}
50 км 5/0
[]
+13.9 +10.5 80 +14 +14 по сезону 1010.7 1008.6
22 17.07 ЮВ 2
{4}
50 км 9/0
[]
+12.4 +10.4 88 +11 +11 по сезону 1010.6 1008.6
23 17.07 ЮВ 3
{5}
50 км в посл. час морось 9/0 2000 м
[]
+12.2 +10.3 88 +11 +11 по сезону 1010.7 1008.7
00 18.07 В 3
{5}
50 км 10/0
[]
+12.0 +9.9 87 +10 +10 по сезону 1010.6 1008.5
01 18.07 В 3
{5}
50 км 10/0 2000 м
[]
+11.7 +9.8 88 +10 +10 по сезону 1010.2 1008.1
02 18.07 В 3
{6}
50 км слаб. ливневой дождь 10/0 2000 м
[]
+11.6 +10.0 90 +10 +10 по сезону 1010.2 1008.1
03 18.07 ЮВ 4
{6}
50 км 10/0 2000 м
[]
+12.2 +9.6 84 +10 +10 по сезону 1009.8 1007.7
04 18.07 В 2
{3}
50 км 5/0
[]
+12.1 +9.6 85 +11 +12 по сезону 1009.5 1007.4
05 18.07 В 1
{5}
45 км 1/0
[]
+13.3 +10.3 82 +13 +15 тепло 1009.4 1007.3
06 18.07 ЮВ 2
{6}
40 км 8/0
[]
+15.6 +10.7 73 +16 +18 тепло 1009.1 1007.1 +11.5 +18.8
07 18.07 СЗ 2
{3}
35 км 4/0
[]
+17.3 +11.0 66 +18 +22 тепло 1008.7 1006.7
08 18.07 З 4
{5}
40 км ясно +17.0 +11.2 69 +17 +22 тепло 1008.3 1006.3
09 18.07 З 4
{5}
40 км ясно +17.8 +10.7 63 +18 +24 тепло 1007.9 1005.9
10 18.07 З 4
{6}
30 км 1/0
[]
+19.1 +12.1 64 +20 +27 тепло 1007.6 1005.6
11 18.07 З 4
{5}
40 км 3/0
[]
+18.4 +12.3 68 +19 +26 тепло 1007.1 1005.1
12 18.07 З 3
{6}
35 км 6/0
[]
+20.4 +12.8 62 +23 +30 комфорт 1006.6 1004.6
13 18.07 З 3
{5}
40 км 5/0 2000 м
[]
+21.2 +13.2 60 +24 +30 комфорт 1006.1 1004.1
14 18.07 З 2
{5}
35 км 5/0
[]
+23.7 +14.4 56 +26 +33 жарко 1005.6 1003.6
15 18.07 З 2
{6}
35 км 5/0
[]
+26.3 +8.3 32 +26 +31 жарко 1005.2 1003.2
16 18.07 З 3
{6}
35 км ясно +23.3 +14.6 58 +27 +31 душно 1005.0 1003.0
17 18.07 З 3
{5}
40 км ясно +23.2 +15.6 62 +27 +30 душно 1004.9 1003.0
18 18.07 Ю 5
{7}
45 км ясно +25.6 +10.7 39 +27 +27 жарко 1004.7 1002.8 +15.2 +28.2
19 18.07 Ю 5
{10}
50 км ясно +24.0 +10.7 43 +25 +25 комфорт 1005.1 1003.1
20 18.07 Ю 5
{8}
50 км ясно +22.6 +10.5 46 +24 +24 комфорт 1005.7 1003.7
21 18.07 ЮВ 4
{8}
50 км ясно +21.6 +10.0 48 +23 +23 комфорт 1006.3 1004.3
22 18.07 В 3
{6}
50 км ясно +20.0 +9.7 51 +22 +22 комфорт 1006.8 1004.8
23 18.07 В 3
{5}
50 км ясно +19.6 +9.9 53 +21 +21 комфорт 1007.4 1005.4
00 19.07 ЮВ 2
{10}
50 км ясно +17.3 +10.3 63 +18 +18 тепло 1007.7 1005.7
01 19.07 В 2
{4}
50 км ясно +17.0 +10.4 65 +17 +17 тепло 1007.6 1005.6
02 19.07 СВ 3
{4}
50 км ясно +17.0 +10.0 63 +17 +17 тепло 1007.7 1005.7
03 19.07 В 3
{5}
50 км ясно +17.8 +9.7 59 +18 +18 тепло 1007.7 1005.7
04 19.07 В 4
{6}
50 км ясно +18.5 +9.2 55 +19 +19 тепло 1007.6 1005.6
05 19.07 В 4
{7}
40 км ясно +19.0 +9.2 53 +20 +21 тепло 1007.7 1005.7
06 19.07 ЮВ 5
{7}
45 км ясно +20.0 +9.5 51 +21 +23 комфорт 1007.7 1005.7 +15.8 +25.8
07 19.07 Ю 6
{11}
40 км ясно +21.3 +10.2 49 +23 +25 комфорт 1007.4 1005.4
08 19.07 Ю 7
{11}
40 км ясно +22.1 +10.3 47 +24 +26 комфорт 1007.6 1005.6
09 19.07 Ю 6
{12}
35 км 1/0
[]
+23.4 +10.0 43 +25 +29 комфорт 1007.8 1005.8
10 19.07 Ю 7
{12}
35 км ясно +23.6 +10.7 44 +25 +28 комфорт 1008.2 1006.2
11 19.07 Ю 6
{12}
40 км 1/0
[]
+23.3 +10.0 43 +25 +30 комфорт 1008.6 1006.6
12 19.07 Ю 6
{12}
45 км 6/0
[]
+22.4 +11.2 49 +25 +28 комфорт 1008.9 1006.9
13 19.07 Ю 5
{10}
35 км 6/0
[]
+23.3 +10.6 45 +25 +29 комфорт 1008.9 1006.9
14 19.07 З 5
{10}
45 км 6/0
[]
+18.9 +13.9 73 +20 +23 тепло 1009.5 1007.5
15 19.07 З 7
{10}
40 км 10/10 1500 м
[]
+19.5 +14.0 71 +21 +21 комфорт 1009.9 1007.9
17 19.07 З 5
{8}
35 км 1/0
[]
+17.0 +13.5 80 +16 +18 по сезону 1010.0 1008.0
18 19.07 З 7
{10}
50 км 8/0 2000 м
[]
+17.2 +13.1 77 +16 +16 по сезону 1010.3 1008.3 +16.6 +24.2
19 19.07 З 7
{9}
45 км 9/0
[]
+16.3 +13.1 81 +15 +15 тепло 1010.7 1008.7
20 19.07 З 8
{11}
50 км 10/0 2000 м
[]
+15.4 +12.6 83 +13 +13 по сезону 1011.6 1009.6
21 19.07 З 6
{9}
50 км 10/0
[]
+14.9 +12.4 85 +13 +13 по сезону 1011.9 1009.9
22 19.07 З 4
{7}
50 км 4/0
[]
+14.3 +12.4 88 +13 +13 тепло 1012.3 1010.2
23 19.07 ЮВ 2
{3}
45 км 3/0
[]
+13.5 +12.0 91 +13 +13 тепло 1012.3 1010.2
00 20.07 ЮВ 2
{11}
45 км 10/10 1500 м
[]
+13.4 +12.0 91 +13 +13 по сезону 1012.4 1010.3
01 20.07 ЮВ 2
{2}
30 км ясно +12.6 +11.7 94 +12 +12 тепло 1012.5 1010.4
02 20.07 ЮВ 2
{3}
22 км ясно +11.7 +11.0 95 +10 +10 по сезону 1012.7 1010.6
03 20.07 ЮВ 3
{4}
30 км 3/0
[]
+11.5 +10.9 96 +10 +10 по сезону 1012.8 1010.7
04 20.07 ЮВ 3
{5}
30 км 3/0
[]
+12.4 +11.2 92 +11 +11 по сезону 1012.7 1010.7
05 20.07 В 3
{7}
35 км ясно +13.4 +11.7 89 +12 +14 по сезону 1012.5 1010.4
06 20.07 ЮВ 3
{7}
40 км ясно +15.2 +12.6 84 +14 +17 по сезону 1012.3 1010.3 +10.8 +17.2
07 20.07 В 1
{6}
35 км ясно +18.1 +13.3 74 +19 +26 тепло 1012.2 1010.1
08 20.07 З 3
{4}
35 км ясно +18.8 +13.7 72 +20 +26 тепло 1011.9 1009.9
09 20.07 З 5
{6}
35 км ясно +18.2 +13.8 75 +18 +23 тепло 1011.6 1009.6
10 20.07 З 4
{5}
40 км ясно +20.3 +13.3 64 +23 +30 комфорт 1011.4 1009.4
11 20.07 З 2
{6}
35 км 6/0
[]
+22.0 +13.7 59 +25 +33 комфорт 1011.0 1009.0
12 20.07 СВ 1
{6}
35 км ясно +25.1 +9.4 37 +26 +39 жарко 1010.3 1008.4
13 20.07 ЮВ 4
{8}
45 км 1/0
[]
+26.0 +9.5 35 +26 +33 жарко 1009.8 1007.8
14 20.07 ЮВ 5
{9}
50 км ясно +26.5 +8.8 33 +27 +31 жарко 1009.2 1007.3
15 20.07 Ю 5
{9}
45 км 4/0
[]
+25.4 +10.7 40 +26 +29 жарко 1008.9 1006.9
16 20.07 Ю 3
{8}
50 км 3/0
[]
+25.7 +11.4 41 +27 +30 жарко 1008.7 1006.7
17 20.07 Ю 5
{8}
45 км 9/0
[]
+25.7 +11.9 42 +27 +28 жарко 1008.4 1006.5
18 20.07 ЮВ 4
{9}
50 км 3/0
[]
+24.2 +11.7 46 +26 +27 жарко 1008.3 1006.3 +15.2 +27.1
19 20.07 Ю 3
{8}
50 км ясно +22.9 +9.8 43 +25 +25 комфорт 1008.5 1006.5
20 20.07 Ю 5
{8}
50 км 3/0
[]
+22.0 +10.0 46 +24 +24 комфорт 1008.9 1006.9
21 20.07 Ю 4
{9}
50 км 9/0
[]
+21.4 +9.5 47 +23 +23 комфорт 1009.2 1007.2
22 20.07 Ю 5
{9}
50 км 5/0
[]
+20.9 +9.6 48 +23 +23 комфорт 1009.4 1007.4
23 20.07 ЮВ 4
{10}
50 км 10/0
[]
+20.5 +9.5 49 +22 +22 комфорт 1009.4 1007.4
00 21.07 ЮВ 4
{10}
50 км слаб. морось 10/0
[]
+20.0 +9.6 51 +21 +21 комфорт 1009.2 1007.2
01 21.07 ЮВ 4
{9}
50 км слаб. ливневой дождь 9/0
[]
+19.7 +9.9 53 +21 +21 комфорт 1008.9 1006.9
02 21.07 ЮВ 5
{9}
45 км слаб. ливневой дождь 10/0
[]
+18.9 +11.2 61 +19 +19 тепло 1008.7 1006.7
03 21.07 В 3
{9}
45 км слаб. ливневой дождь 8/0
[]
+18.5 +11.3 63 +19 +19 тепло 1009.0 1007.0
04 21.07 В 4
{6}
28 км слаб. дождь ясно +17.4 +12.4 72 +17 +17 тепло 1009.2 1007.2 0.1
05 21.07 ЮВ 3
{6}
50 км в посл. час дождь 8/0
[]
+17.7 +12.8 73 +18 +19 тепло 1008.8 1006.8
06 21.07 В 5
{9}
50 км 6/0
[]
+18.0 +13.4 74 +18 +19 тепло 1008.5 1006.5 +17.3 +24.3 0.1
07 21.07 В 3
{5}
40 км 10/0
[]
+19.3 +13.6 70 +21 +23 комфорт 1008.2 1006.2
08 21.07 ЮВ 4
{8}
40 км 10/0
[]
+23.3 +13.2 53 +26 +29 жарко 1008.0 1006.0
09 21.07 ЮВ 2
{7}
40 км 5/0
[]
+24.0 +13.8 53 +26 +34 жарко 1007.7 1005.7
10 21.07 ЮЗ 4
{6}
40 км 9/0
[]
+23.1 +13.2 54 +26 +30 жарко 1007.9 1005.9
11 21.07 СЗ 3
{7}
40 км 5/0 2000 м
[]
+20.6 +14.1 66 +24 +31 комфорт 1008.0 1006.0
12 21.07 ЮЗ 1
{8}
40 км в посл. час морось 9/0 2000 м
[]
+19.8 +14.8 73 +23 +30 комфорт 1008.1 1006.1

 

Местоположение метеостанции Тронхейм аэропорт (Норвегия): широта 63.46 долгота 10.94 высота над уровнем моря 12 м.

В архиве по умолчанию представлена погода в Тронхейм аэропорту за последнюю неделю. Архивные данные за месяц целиком и за предыдущие месяцы, начиная с января 2011 года, Вы можете получить, выбрав интересующий диапазон дат из раскрывающегося списка и нажав кнопку "Ввод!".


*Определитесь, кто Вы:
робот инопланетянин человек

Внимание! Время в таблицах - всемирное. Для получения местного времени необходимо прибавить поправку, которая равна 1 ч.

Смотрите также архив погоды в соседних городах и на ближайших метеорологических станциях:

Погода в Квитаммаре (Норвегия) (4 км)
Погода во Фросте (Норвегия) (17 км)
Погода в Тронхейме (Норвегия) (25 км)
Погода в Сельбу (Норвегия) (26 км)
Погода в Мерокере (Норвегия) (40 км)
Погода в Орканжере (Норвегия) (56 км)
Погода в Котсой (Норвегия) (57 км)
Погода в Сторлиен аэропорту (Швеция) (62 км)
Погода в Офьорде (Норвегия) (67 км)
Погода в Стейнхьере (Норвегия) (67 км)

Пояснения к столбцам:

Ветер - указаны скорость ветра в м/с - средняя за 10 мин, порывы в срок и между сроками (в фигурных скобках) и направление, откуда дует ветер: С - северный, СВ - северо-восточный, В - восточный, ЮВ - юго-восточный, Ю - южный, ЮЗ - юго-западный, З - западный, СЗ - северо-западный.
Видимость - горизонтальная дальность видимости в метрах или километрах. При видимости от 1 до 10 км при отсутствии осадков обычно наблюдается дымка, при ухудшении видимости до 1 км и менее - туман. В сухую погоду видимость может ухудшаться дымом, пылью или мглою.
Явления - указаны атмосферные явления, наблюдавшиеся в срок или в последний час перед сроком; фигурными скобками обозначены явления, наблюдавшиеся между сроками (за 1-3 часа до срока); квадратными скобками обозначены град или гололедные отложения с указанием их диаметра в мм.
Облачность - указаны через наклонную черту общая и нижняя облачность в баллах и высота нижней границы облаков в метрах; квадратными скобками обозначены формы облаков: Ci - перистые, Cs - перисто-слоистые, Cc - перисто-кучевые, Ac - высококучевые, As - высокослоистые, Sc - слоисто-кучевые, Ns - слоисто-дождевые, Cu - кучевые, Cb - кучево-дождевые. Подробнее классификацию облаков см. в Атласе облаков (PDF).
T - Температура воздуха - температура, измеренная на высоте 2 м над землей.
Td - Температура точки росы - температура, при понижении до которой содержащийся в воздухе водяной пар достигнет насыщения.
f - Относительная влажность воздуха - влажноcть воздуха, измеренная на высоте 2 м над землей.
Te - Эффективная температура - температура, которую ощущает одетый по сезону человек в тени. Характеристика душности погоды. При расчете учитывается влияние влажности воздуха и скорости ветра на теплоощущения человека.
Tes - Эффективная температура на солнце - температура, которую ощущает человек, с поправкой на солнечный нагрев. Характеристика знойности погоды. Зависит от высоты солнца над горизонтом, облачности и скорости ветра. Ночью, в пасмурную погоду, а также при ветре 12 м/с и более поправка равна нулю.
P - Атмосферное давление - приведенное к уровню моря атмосферное давление.
Po - Атмосферное давление - измеренное на уровне метеостанции атмосферное давление.
Tmin - Минимальная температура - минимум температуры воздуха на высоте 2 м над землей.
Tmax - Максимальная температура - максимум температуры воздуха на высоте 2 м над землей.
R - Количество осадков - Количество выпавших осадков за период времени, мм. При наведении курсора мыши на число - период времени, за который выпало указанное количество осадков.
R24 - Количество осадков - Количество выпавших осадков за 24 часа, мм.
S - Снежный покров - Высота снежного покрова, см. При наведении курсора мыши на число - состояние снежного покрова и степень покрытия местности в баллах.